Location: Newark
(5.5500°N, 0.2500°W)
Time: 01:02:12
(UTC+00:00)

OTV 5 (USA 277) - Pass Details

Date: 26 October 2019
Orbit: 310 x 324 km, 54.5° (Epoch: 17 October)

Event Time Altitude Azimuth Distance (km) Brightness Sun altitude
Exits shadow 05:04:15 17° 308° (NW) 906 ? -11.1°
Maximum altitude 05:06:05 46° 238° (WSW) 431 ? -10.7°
Drops below altitude 10° 05:08:41 10° 162° (SSE) 1,208 ? -10.0°
Sets 05:10:40 0° 156° (SSE) 2,035 ? -9.6°
